This is the latest recevied weather packets stored in our database for station/object OK2ZA-6. If no packets are shown the sender has not sent any weather packets the latest 10 day(s).
| Time | Temp. | Humidity | Pressure | Rain* | Wind** | Luminosity | Snow |
|---|---|---|---|---|---|---|---|
| 1777984204 | 21.67° C | 47% | 1007.5 hPa | 0 mm | - | - | - |
| 1777983603 | 21.67° C | 46% | 1007.6 hPa | 0 mm | - | - | - |
| 1777983004 | 21.67° C | 47% | 1007.7 hPa | 0 mm | - | - | - |
| 1777982403 | 21.67° C | 47% | 1007.7 hPa | 0 mm | - | - | - |
| 1777981803 | 21.11° C | 49% | 1007.7 hPa | 0 mm | - | - | - |
| 1777981203 | 21.11° C | 48% | 1007.9 hPa | 0 mm | - | - | - |
| 1777980603 | 21.11° C | 48% | 1008 hPa | 0 mm | - | - | - |
| 1777980003 | 20.56° C | 48% | 1007.9 hPa | 0 mm | - | - | - |
| 1777979404 | 20.56° C | 49% | 1008 hPa | 0 mm | - | - | - |
| 1777978804 | 20.56° C | 50% | 1008.1 hPa | 0 mm | - | - | - |
| 1777978204 | 20° C | 53% | 1008.1 hPa | 0 mm | - | - | - |
| 1777977604 | 20° C | 52% | 1008.2 hPa | 0 mm | - | - | - |
| 1777977004 | 20° C | 54% | 1008.3 hPa | 0 mm | - | - | - |
| 1777976404 | 19.44° C | 53% | 1008.5 hPa | 0 mm | - | - | - |
| 1777975804 | 18.89° C | 54% | 1008.5 hPa | 0 mm | - | - | - |
| 1777975204 | 18.89° C | 54% | 1008.5 hPa | 0 mm | - | - | - |
| 1777974604 | 18.33° C | 57% | 1008.6 hPa | 0 mm | - | - | - |
| 1777974004 | 17.78° C | 57% | 1008.7 hPa | 0 mm | - | - | - |
| 1777973404 | 17.78° C | 58% | 1008.7 hPa | 0 mm | - | - | - |
| 1777972804 | 17.22° C | 56% | 1008.8 hPa | 0 mm | - | - | - |
| 1777972204 | 17.22° C | 56% | 1008.8 hPa | 0 mm | - | - | - |
| 1777971604 | 16.67° C | 57% | 1008.9 hPa | 0 mm | - | - | - |
| 1777971004 | 16.67° C | 56% | 1009.1 hPa | 0 mm | - | - | - |
| 1777970404 | 16.11° C | 58% | 1009.1 hPa | 0 mm | - | - | - |
| 1777969804 | 15.56° C | 60% | 1009.1 hPa | 0 mm | - | - | - |
* Rain latest hour (hover to see other rain measurements)
** Current wind speed in m/s (hover to see current wind gust speed)